(202979) = 1999 TR202 = 2005 CF18

Discovered at Socorro on 1999-10-13 by LINEAR.

Orbit

Orbit type: Main Belt

Note: WebGL enabled browser required.

epoch2022-01-21.0
epoch JD2459600.5
perihelion date2021-03-04.16900
perihelion JD2459277.66900
argument of perihelion (°)121.21965
ascending node (°)307.24153
inclination (°)2.71145
eccentricity0.0960664
perihelion distance (AU)2.3466659
Tisserand w.r.t. Jupiter3.4
ΔV w.r.t. Earth (km/sec)9.6
semimajor axis (AU)2.5960600
mean anomaly (°)76.06887
mean daily motion (°/day)0.23563060
aphelion distance (AU)2.845
period (years)4.18
P-vector [x]0.36636934
P-vector [y]0.83678953
P-vector [z]0.40688670
Q-vector [x]-0.92970707
Q-vector [y]0.34691217
Q-vector [z]0.12367986
absolute magnitude16.81
phase slope0.15
uncertainty0
referenceMPO 695319
observations used323
oppositions14
arc length (days)8208
first opposition used1999
last opposition used2022
residual rms (arc-secs)0.78
perturbers coarse indicatorM-v
perturbers precise indicator003Ek
first observation date used1999-10-13.0
last observation date used2022-04-03.0
computer namePan
JD of orbit computation2456819.673549
perihelion JD uncertainty (days)1.3157E-04
argument of perihelion uncertainty (°)7.4809E-05
ascending node uncertainty (°)6.8394E-05
inclination uncertainty (°)3.2249E-06
eccentricity uncertainty 2.6190E-08
perihelion distance uncertainty (AU)6.2421E-08
Minimum Orbit Intersection Distances (in AU)
for orbit epoch: 2459200.5, reference: E2021-B55
Mercury2.03817
Venus1.62687
Earth1.36166
Mars0.78195
Jupiter2.38341
Saturn6.71027
Uranus15.6708
Neptune27.383

Observations

328 total observations over interval: 1999 10 13.25077 – 2022 04 03.264360
These data are available for download (format description).

Date (UT) J2000 RA J2000 Dec Magn Location Ref
1999 10 13.25077 01 08 25.81 +12 00 27.4 20.2   704 – Lincoln Laboratory ETS, New Mexico MPS 13917
1999 10 13.26641 01 08 24.94 +12 00 22.4 20.2   704 – Lincoln Laboratory ETS, New Mexico MPS 13917
1999 10 13.29889 01 08 23.10 +12 00 13.3 20.8   704 – Lincoln Laboratory ETS, New Mexico MPS 13917
1999 10 13.31922 01 08 22.06 +12 00 08.4 20.3   704 – Lincoln Laboratory ETS, New Mexico MPS 13917
1999 10 15.25302 01 06 37.92 +11 50 24.0 19.9   704 – Lincoln Laboratory ETS, New Mexico MPS 13917
1999 10 15.28475 01 06 36.22 +11 50 14.2 20.0   704 – Lincoln Laboratory ETS, New Mexico MPS 13917
1999 10 15.30133 01 06 35.32 +11 50 09.1 19.9   704 – Lincoln Laboratory ETS, New Mexico MPS 13917
1999 10 15.31724 01 06 34.37 +11 50 04.1 20.1   704 – Lincoln Laboratory ETS, New Mexico MPS 13917
1999 10 20.20961 01 02 15.52 +11 24 43.6 19.6   704 – Lincoln Laboratory ETS, New Mexico MPS 15387
1999 10 20.22517 01 02 14.75 +11 24 39.4 19.1   704 – Lincoln Laboratory ETS, New Mexico MPS 15387
1999 10 20.24073 01 02 13.94 +11 24 34.7 19.7   704 – Lincoln Laboratory ETS, New Mexico MPS 15387
2003 09 16.32855 23 44 02.08 +01 54 51.8 20.2 V 691 – Steward Observatory, Kitt Peak-Spacewatch MPS 129938
2003 09 16.35590 23 44 00.59 +01 54 44.2 20.2 V 691 – Steward Observatory, Kitt Peak-Spacewatch MPS 129938
2003 09 16.38300 23 43 59.10 +01 54 36.6 20.1 V 691 – Steward Observatory, Kitt Peak-Spacewatch MPS 129938
2003 09 26.262930 23 35 22.634 +01 06 48.35 20.03 V 645 – Apache Point-Sloan Digital Sky Survey MPS 136836
2003 09 26.266402 23 35 22.444 +01 06 47.27 20.93   645 – Apache Point-Sloan Digital Sky Survey MPS 136836
2003 09 27.20263 23 34 34.93 +01 02 10.7 20.0 V 691 – Steward Observatory, Kitt Peak-Spacewatch MPS 129938
2003 09 27.23278 23 34 33.33 +01 02 02.2 20.5 V 691 – Steward Observatory, Kitt Peak-Spacewatch MPS 129938
2003 09 27.26556 23 34 31.62 +01 01 52.2 20.3 V 691 – Steward Observatory, Kitt Peak-Spacewatch MPS 129938
2003 09 28.271180 23 33 40.899 +00 56 55.69 20.08 V 645 – Apache Point-Sloan Digital Sky Survey MPS 136836
2003 09 28.274652 23 33 40.722 +00 56 54.67 21.01   645 – Apache Point-Sloan Digital Sky Survey MPS 136836
2003 10 17.08954 23 20 46.92 -00 24 25.5 21.1 V 691 – Steward Observatory, Kitt Peak-Spacewatch MPS 129938
2003 10 17.11750 23 20 46.08 -00 24 31.0 20.9 V 691 – Steward Observatory, Kitt Peak-Spacewatch MPS 129938
2003 10 17.15066 23 20 45.02 -00 24 37.7 20.7 V 691 – Steward Observatory, Kitt Peak-Spacewatch MPS 129938
2003 10 18.143630 23 20 16.536 -00 27 57.75 20.44 V 645 – Apache Point-Sloan Digital Sky Survey MPS 136836
2003 10 18.147102 23 20 16.436 -00 27 58.42 21.34   645 – Apache Point-Sloan Digital Sky Survey MPS 136836
2003 10 23.187660 23 18 15.192 -00 42 49.94 20.54 V 645 – Apache Point-Sloan Digital Sky Survey MPS 136836
2003 10 23.191132 23 18 15.118 -00 42 50.46 21.41   645 – Apache Point-Sloan Digital Sky Survey MPS 136836
2003 11 19.105080 23 19 12.638 -00 55 31.08 21.05 V 645 – Apache Point-Sloan Digital Sky Survey MPS 136836
2003 11 19.108552 23 19 12.713 -00 55 30.88 21.87   645 – Apache Point-Sloan Digital Sky Survey MPS 136836
2005 02 02.28740 09 07 45.76 +15 58 00.6 19.6   704 – Lincoln Laboratory ETS, New Mexico MPS 127219
2005 02 02.30022 09 07 44.93 +15 58 02.7 20.2   704 – Lincoln Laboratory ETS, New Mexico MPS 127219
2005 02 02.31307 09 07 44.12 +15 58 05.3 20.4   704 – Lincoln Laboratory ETS, New Mexico MPS 127219
2005 02 02.31668 09 07 43.92 +15 58 07.6 18.9 R 703 – Catalina Sky Survey MPS 126429
2005 02 02.32518 09 07 43.28 +15 58 07.4 18.8 R 703 – Catalina Sky Survey MPS 126429
2005 02 02.32578 09 07 43.46 +15 58 08.9 20.1   704 – Lincoln Laboratory ETS, New Mexico MPS 127219
2005 02 02.33372 09 07 42.84 +15 58 09.7 19.1 R 703 – Catalina Sky Survey MPS 126429
2005 02 02.34222 09 07 42.28 +15 58 11.1 19.8 R 703 – Catalina Sky Survey MPS 126429
2005 02 04.23523 09 05 49.95 +16 04 00.6 19.9 V 691 – Steward Observatory, Kitt Peak-Spacewatch MPS 126429
2005 02 04.26477 09 05 48.15 +16 04 06.2 19.9 V 691 – Steward Observatory, Kitt Peak-Spacewatch MPS 126429
2005 02 04.29390 09 05 46.33 +16 04 11.4 19.8 V 691 – Steward Observatory, Kitt Peak-Spacewatch MPS 126429
2005 03 02.12036 08 44 20.45 +17 05 01.0 20.8 V 691 – Steward Observatory, Kitt Peak-Spacewatch MPS 127219
2005 03 02.13714 08 44 19.87 +17 05 02.6 20.5 V 691 – Steward Observatory, Kitt Peak-Spacewatch MPS 127219
2005 03 02.15369 08 44 19.28 +17 05 03.8 20.8 V 691 – Steward Observatory, Kitt Peak-Spacewatch MPS 127219
2005 03 09.19854 08 41 04.51 +17 12 01.7 20.1 R G96 – Mt. Lemmon Survey MPS 128026
2005 03 09.20515 08 41 04.36 +17 12 01.7 20.2 R G96 – Mt. Lemmon Survey MPS 128026
2005 03 09.21172 08 41 04.20 +17 12 02.0 20.2 R G96 – Mt. Lemmon Survey MPS 128026
2005 03 09.21832 08 41 04.02 +17 12 02.3 19.2 R G96 – Mt. Lemmon Survey MPS 128026
2005 03 11.12259 08 40 26.49 +17 13 05.4 20.6 V 691 – Steward Observatory, Kitt Peak-Spacewatch MPS 127729
2005 03 11.13874 08 40 26.16 +17 13 06.0 20.9 V 691 – Steward Observatory, Kitt Peak-Spacewatch MPS 127729
2005 03 11.15476 08 40 25.86 +17 13 06.5 20.6 V 691 – Steward Observatory, Kitt Peak-Spacewatch MPS 127729
2005 04 05.13318 08 41 56.66 +16 54 25.4 21.9 R G96 – Mt. Lemmon Survey MPS 130580
2005 04 05.13979 08 41 56.80 +16 54 24.7 20.3 R G96 – Mt. Lemmon Survey MPS 130580
2005 04 05.14642 08 41 56.97 +16 54 23.9 20.2 R G96 – Mt. Lemmon Survey MPS 130580
2005 04 05.15304 08 41 57.02 +16 54 23.4 20.5 R G96 – Mt. Lemmon Survey MPS 130580
2005 04 06.14156 08 42 21.49 +16 52 27.8 20.5 R G96 – Mt. Lemmon Survey MPS 130580
2005 04 06.14679 08 42 21.60 +16 52 27.0 20.6 R G96 – Mt. Lemmon Survey MPS 130580
2005 04 06.15212 08 42 21.78 +16 52 26.2 20.9 R G96 – Mt. Lemmon Survey MPS 130580
2005 04 06.15740 08 42 21.88 +16 52 26.0 21.0 R G96 – Mt. Lemmon Survey MPS 130580
2005 04 07.25412 08 42 50.74 +16 50 12.5 21.0 i 568 – Maunakea MPS 133061
2005 04 07.30154 08 42 51.94 +16 50 06.4 21.0 i 568 – Maunakea MPS 133061
2005 04 07.35340 08 42 53.27 +16 49 59.6 20.9 i 568 – Maunakea MPS 133061
2007 09 05.22780 22 13 17.40 -08 45 48.4 19.8 V G96 – Mt. Lemmon Survey MPS 214350
2007 09 05.23339 22 13 17.11 -08 45 50.0 19.9 V G96 – Mt. Lemmon Survey MPS 214350
2007 09 05.24013 22 13 16.75 -08 45 51.5 20.3 V G96 – Mt. Lemmon Survey MPS 214350
2007 09 05.24633 22 13 16.42 -08 45 53.2 20.0 V G96 – Mt. Lemmon Survey MPS 214350
2007 09 12.23005 22 07 30.03 -09 12 55.2 19.7 V G96 – Mt. Lemmon Survey MPS 214956
2007 09 12.23524 22 07 29.85 -09 12 56.1 19.6 V G96 – Mt. Lemmon Survey MPS 214956
2007 09 12.24044 22 07 29.53 -09 12 57.2 20.4 V G96 – Mt. Lemmon Survey MPS 214956
2007 09 12.24584 22 07 29.28 -09 12 58.0 20.4 V G96 – Mt. Lemmon Survey MPS 214956
2008 12 21.35435 07 48 03.62 +22 51 59.9 20.4 V 691 – Steward Observatory, Kitt Peak-Spacewatch MPS 269173
2008 12 21.37248 07 48 02.76 +22 52 01.2 20.2 V 691 – Steward Observatory, Kitt Peak-Spacewatch MPS 269173
2008 12 21.39086 07 48 01.83 +22 52 02.6 20.1 V 691 – Steward Observatory, Kitt Peak-Spacewatch MPS 269173
2008 12 29.29319 07 41 06.40 +23 01 41.6 20.2 V 691 – Steward Observatory, Kitt Peak-Spacewatch MPS 269993
2008 12 29.31131 07 41 05.32 +23 01 43.2 20.3 V 691 – Steward Observatory, Kitt Peak-Spacewatch MPS 269993
2008 12 29.32967 07 41 04.27 +23 01 44.8 20.5 V 691 – Steward Observatory, Kitt Peak-Spacewatch MPS 269993
2009 01 02.35013 07 37 05.91 +23 06 40.3 20.0 V G96 – Mt. Lemmon Survey MPS 269993
2009 01 02.35831 07 37 05.37 +23 06 41.0 20.0 V G96 – Mt. Lemmon Survey MPS 269993
2009 01 02.36642 07 37 04.87 +23 06 41.5 20.1 V G96 – Mt. Lemmon Survey MPS 269993
2009 01 02.37462 07 37 04.36 +23 06 42.1 20.0 V G96 – Mt. Lemmon Survey MPS 269993
2010 05 06.28168 14 23 08.01 -18 39 41.7 20.2 V G96 – Mt. Lemmon Survey MPS 326208
2010 05 06.28698 14 23 07.72 -18 39 40.5 20.2 V G96 – Mt. Lemmon Survey MPS 326208
2010 05 06.29238 14 23 07.40 -18 39 38.8 20.9 V G96 – Mt. Lemmon Survey MPS 326208
2010 05 06.29779 14 23 07.11 -18 39 37.3 20.5 V G96 – Mt. Lemmon Survey MPS 326208
2011 07 01.40956 21 31 20.24 -14 47 11.4 22.3 V G96 – Mt. Lemmon Survey MPS 386229
2011 07 01.41759 21 31 20.10 -14 47 11.7 20.7 V G96 – Mt. Lemmon Survey MPS 386229
